EWG1245 EDDL-EDXW

Flight info

Callsign EWG1245
Flight time 0h 43m
Altitude 35000
Route MEVEL3T MEVEL L179 OSN M170 ELSOB/N0438F340 DCT BADOS DCT OLDIP
Aircraft A320/M-SDE3FGHIRWY/LB1

Departure

Time 2026-03-25 14:25
Airport Düsseldorf Airport (EDDL)

Arrival

Time 2026-03-25 15:08
Airport Westerland Sylt Airport (EDXW)
Time Latitude Longitude Altitude Speed Heading
2026-03-25 14:00 51.28108 6.76557 127 ft 0 kts 97°
2026-03-25 14:16 51.28108 6.76558 118 ft 2 kts 96°
2026-03-25 14:17 51.28110 6.76531 115 ft 2 kts 96°
2026-03-25 14:17 51.28112 6.76504 116 ft 2 kts 96°
2026-03-25 14:17 51.28114 6.76478 115 ft 2 kts 96°
2026-03-25 14:17 51.28116 6.76451 115 ft 2 kts 68°
2026-03-25 14:18 51.28105 6.76432 116 ft 2 kts 358°
2026-03-25 14:18 51.28096 6.76433 114 ft 2 kts 348°
2026-03-25 14:18 51.28089 6.76435 115 ft 0 kts 345°
2026-03-25 14:20 51.28111 6.76427 115 ft 7 kts 346°
2026-03-25 14:20 51.28155 6.76424 118 ft 6 kts
2026-03-25 14:20 51.28191 6.76432 118 ft 5 kts
2026-03-25 14:20 51.28240 6.76454 116 ft 10 kts 32°
2026-03-25 14:21 51.28295 6.76493 118 ft 8 kts
2026-03-25 14:21 51.28355 6.76521 116 ft 13 kts 32°
2026-03-25 14:21 51.28442 6.76675 116 ft 22 kts 53°
2026-03-25 14:21 51.28532 6.76863 115 ft 20 kts 52°
2026-03-25 14:22 51.28615 6.77039 116 ft 19 kts 52°
2026-03-25 14:22 51.28707 6.77229 115 ft 23 kts 52°
2026-03-25 14:22 51.28804 6.77437 116 ft 24 kts 51°
2026-03-25 14:22 51.28876 6.77583 113 ft 25 kts 53°
2026-03-25 14:23 51.28984 6.77815 116 ft 27 kts 52°
2026-03-25 14:23 51.29196 6.78261 116 ft 23 kts 53°
2026-03-25 14:23 51.29296 6.78473 114 ft 24 kts 52°
2026-03-25 14:24 51.29415 6.78566 118 ft 19 kts
2026-03-25 14:24 51.29514 6.78491 116 ft 15 kts 276°
2026-03-25 14:24 51.29452 6.78337 116 ft 18 kts 234°
2026-03-25 14:24 51.29277 6.77962 116 ft 79 kts 233°
2026-03-25 14:25 51.28814 6.76969 123 ft 140 kts 237°
2026-03-25 14:25 51.28204 6.75691 706 ft 146 kts 236°
2026-03-25 14:25 51.27579 6.74374 1481 ft 150 kts 238°
2026-03-25 14:25 51.26946 6.73007 2160 ft 156 kts 247°
2026-03-25 14:26 51.26803 6.71273 2556 ft 169 kts 286°
2026-03-25 14:26 51.27437 6.69649 3070 ft 179 kts 322°
2026-03-25 14:26 51.28553 6.68770 3854 ft 180 kts 340°
2026-03-25 14:26 51.29816 6.68573 4539 ft 190 kts 358°
2026-03-25 14:27 51.31203 6.68702 4957 ft 208 kts 359°
2026-03-25 14:27 51.32724 6.68855 5387 ft 235 kts
2026-03-25 14:27 51.34449 6.69039 5948 ft 255 kts
2026-03-25 14:27 51.36220 6.69246 7009 ft 256 kts
2026-03-25 14:28 51.38010 6.69455 8025 ft 260 kts
2026-03-25 14:28 51.39829 6.69615 8988 ft 265 kts 358°
2026-03-25 14:28 51.41699 6.69659 9929 ft 271 kts 357°
2026-03-25 14:28 51.43663 6.69647 10380 ft 294 kts 356°
2026-03-25 14:29 51.45779 6.69614 10949 ft 310 kts 356°
2026-03-25 14:29 51.47963 6.69595 11791 ft 316 kts 357°
2026-03-25 14:29 51.50174 6.69588 12667 ft 320 kts 357°
2026-03-25 14:29 51.52421 6.69589 13528 ft 325 kts 357°
2026-03-25 14:30 51.54699 6.69593 14281 ft 329 kts 356°
2026-03-25 14:30 51.57003 6.69600 15011 ft 334 kts 358°
2026-03-25 14:30 51.59337 6.70082 15721 ft 344 kts 11°
2026-03-25 14:30 51.61605 6.71476 16428 ft 354 kts 24°
2026-03-25 14:31 51.63634 6.73722 17103 ft 366 kts 38°
2026-03-25 14:31 51.65352 6.76839 17779 ft 376 kts 51°
2026-03-25 14:31 51.66908 6.80238 18441 ft 380 kts 51°
2026-03-25 14:31 51.68479 6.83679 19077 ft 384 kts 51°
2026-03-25 14:32 51.70079 6.87169 19676 ft 388 kts 51°
2026-03-25 14:32 51.71699 6.90691 20281 ft 393 kts 52°
2026-03-25 14:32 51.73330 6.94247 20864 ft 397 kts 52°
2026-03-25 14:32 51.74982 6.97854 21435 ft 402 kts 52°
2026-03-25 14:33 51.76653 7.01509 21993 ft 406 kts 52°
2026-03-25 14:33 51.78336 7.05193 22555 ft 411 kts 53°
2026-03-25 14:33 51.80041 7.08934 23100 ft 415 kts 53°
2026-03-25 14:33 51.81760 7.12724 23568 ft 419 kts 53°
2026-03-25 14:34 51.83486 7.16530 24022 ft 423 kts 53°
2026-03-25 14:34 51.85226 7.20437 24430 ft 428 kts 56°
2026-03-25 14:34 51.86683 7.24580 24838 ft 432 kts 62°
2026-03-25 14:34 51.88098 7.28927 24985 ft 444 kts 62°
2026-03-25 14:35 51.89556 7.33393 25095 ft 454 kts 62°
2026-03-25 14:35 51.91050 7.37977 25228 ft 464 kts 62°
2026-03-25 14:35 51.92568 7.42649 25362 ft 473 kts 62°
2026-03-25 14:35 51.94115 7.47424 25489 ft 482 kts 62°
2026-03-25 14:36 51.95686 7.52281 25596 ft 489 kts 62°
2026-03-25 14:36 51.97273 7.57182 25754 ft 496 kts 62°
2026-03-25 14:36 51.98889 7.62179 25926 ft 500 kts 62°
2026-03-25 14:36 52.00504 7.67189 26238 ft 502 kts 62°
2026-03-25 14:37 52.02114 7.72199 26606 ft 502 kts 62°
2026-03-25 14:37 52.03733 7.77243 26998 ft 502 kts 62°
2026-03-25 14:37 52.05350 7.82287 27389 ft 502 kts 62°
2026-03-25 14:37 52.06957 7.87310 27779 ft 502 kts 62°
2026-03-25 14:38 52.08570 7.92366 28148 ft 503 kts 62°
2026-03-25 14:38 52.10176 7.97412 28562 ft 503 kts 62°
2026-03-25 14:38 52.11781 8.02474 28973 ft 503 kts 62°
2026-03-25 14:38 52.13392 8.07562 29394 ft 503 kts 62°
2026-03-25 14:39 52.14995 8.12630 29801 ft 503 kts 62°
2026-03-25 14:39 52.16573 8.17625 30117 ft 503 kts 62°
2026-03-25 14:39 52.18333 8.22546 30425 ft 503 kts 53°
2026-03-25 14:39 52.20532 8.26956 30727 ft 501 kts 44°
2026-03-25 14:40 52.23118 8.30728 31035 ft 498 kts 34°
2026-03-25 14:40 52.26017 8.33768 31361 ft 495 kts 25°
2026-03-25 14:40 52.29064 8.36403 31663 ft 495 kts 25°
2026-03-25 14:40 52.32103 8.39042 31995 ft 496 kts 25°
2026-03-25 14:41 52.35166 8.41701 32328 ft 495 kts 24°
2026-03-25 14:41 52.38354 8.43719 32648 ft 489 kts 10°
2026-03-25 14:41 52.41695 8.44503 32964 ft 484 kts
2026-03-25 14:41 52.45063 8.44899 33293 ft 483 kts 360°
2026-03-25 14:42 52.48423 8.45271 33591 ft 484 kts 360°
2026-03-25 14:42 52.55128 8.45995 33643 ft 483 kts 360°
2026-03-25 14:43 52.61835 8.46730 33634 ft 483 kts
2026-03-25 14:43 52.68502 8.47489 33633 ft 482 kts
2026-03-25 14:44 52.75206 8.48252 33629 ft 483 kts
2026-03-25 14:44 52.81916 8.49016 33629 ft 483 kts
2026-03-25 14:45 52.88627 8.49766 33625 ft 483 kts
2026-03-25 14:45 52.95324 8.50530 33639 ft 483 kts
2026-03-25 14:46 53.02031 8.51311 33633 ft 483 kts
2026-03-25 14:46 53.08757 8.52083 33628 ft 483 kts
2026-03-25 14:47 53.15414 8.52856 33627 ft 483 kts
2026-03-25 14:47 53.22112 8.53629 33601 ft 482 kts
2026-03-25 14:47 53.25479 8.54022 32965 ft 479 kts
2026-03-25 14:48 53.28768 8.54409 32009 ft 481 kts
2026-03-25 14:48 53.32121 8.54804 31063 ft 482 kts
2026-03-25 14:48 53.35478 8.55197 30143 ft 483 kts
2026-03-25 14:48 53.38825 8.55586 29166 ft 484 kts
2026-03-25 14:49 53.42167 8.55977 28412 ft 478 kts
2026-03-25 14:49 53.45468 8.56365 28020 ft 475 kts 360°
2026-03-25 14:49 53.48747 8.56750 27400 ft 470 kts 359°
2026-03-25 14:49 53.52011 8.57133 26840 ft 465 kts 359°
2026-03-25 14:50 53.55232 8.57511 26286 ft 469 kts 359°
2026-03-25 14:50 53.58513 8.57889 25720 ft 473 kts 359°
2026-03-25 14:50 53.61794 8.58274 25157 ft 470 kts 358°
2026-03-25 14:50 53.65027 8.58662 24582 ft 465 kts 358°
2026-03-25 14:51 53.68237 8.59051 24022 ft 460 kts 358°
2026-03-25 14:51 53.71427 8.59437 23422 ft 452 kts 358°
2026-03-25 14:51 53.74534 8.59811 22768 ft 445 kts 358°
2026-03-25 14:51 53.77599 8.60174 22192 ft 438 kts 358°
2026-03-25 14:52 53.80587 8.60526 21622 ft 433 kts 358°
2026-03-25 14:52 53.83570 8.60877 21057 ft 427 kts 358°
2026-03-25 14:52 53.86518 8.61228 20495 ft 421 kts 358°
2026-03-25 14:52 53.89429 8.61577 19939 ft 416 kts 358°
2026-03-25 14:53 53.92298 8.61919 19390 ft 410 kts 358°
2026-03-25 14:53 53.95124 8.62258 18867 ft 405 kts 359°
2026-03-25 14:53 53.97924 8.62596 18308 ft 405 kts 359°
2026-03-25 14:53 54.00781 8.62930 17764 ft 416 kts 359°
2026-03-25 14:54 54.03676 8.63273 17186 ft 415 kts 359°
2026-03-25 14:54 54.06565 8.63623 16643 ft 412 kts 359°
2026-03-25 14:54 54.09408 8.63974 16131 ft 409 kts 359°
2026-03-25 14:54 54.12196 8.64316 15591 ft 406 kts 359°
2026-03-25 14:55 54.15002 8.64657 15078 ft 402 kts 359°
2026-03-25 14:55 54.17787 8.64996 14568 ft 399 kts 359°
2026-03-25 14:55 54.20552 8.65332 14066 ft 396 kts 359°
2026-03-25 14:55 54.23290 8.65665 13552 ft 393 kts 359°
2026-03-25 14:56 54.26007 8.65996 13007 ft 390 kts 359°
2026-03-25 14:56 54.28708 8.66320 12510 ft 387 kts 359°
2026-03-25 14:56 54.31386 8.66643 11994 ft 384 kts 359°
2026-03-25 14:56 54.34041 8.66967 11472 ft 381 kts 359°
2026-03-25 14:57 54.36683 8.67291 10960 ft 378 kts 359°
2026-03-25 14:57 54.39265 8.67609 10449 ft 375 kts 359°
2026-03-25 14:57 54.41861 8.67929 9930 ft 373 kts 359°
2026-03-25 14:57 54.44469 8.68249 9546 ft 366 kts 359°
2026-03-25 14:58 54.46936 8.68561 9395 ft 346 kts 359°
2026-03-25 14:58 54.49259 8.68864 8955 ft 324 kts 358°
2026-03-25 14:58 54.51438 8.69143 7823 ft 317 kts 358°
2026-03-25 14:58 54.53667 8.69411 6819 ft 319 kts 358°
2026-03-25 14:59 54.55802 8.69677 6321 ft 297 kts 358°
2026-03-25 14:59 54.57800 8.69935 5812 ft 279 kts 358°
2026-03-25 14:59 54.59692 8.70162 5270 ft 263 kts 355°
2026-03-25 14:59 54.61435 8.69841 4775 ft 244 kts 340°
2026-03-25 15:00 54.62944 8.68794 4701 ft 224 kts 326°
2026-03-25 15:00 54.64199 8.67394 4645 ft 207 kts 321°
2026-03-25 15:00 54.65332 8.66008 4586 ft 193 kts 321°
2026-03-25 15:00 54.66390 8.64713 4564 ft 181 kts 321°
2026-03-25 15:01 54.67409 8.63465 4554 ft 179 kts 321°
2026-03-25 15:01 54.68426 8.62221 4552 ft 179 kts 321°
2026-03-25 15:01 54.69443 8.60977 4556 ft 179 kts 321°
2026-03-25 15:01 54.70463 8.59730 4578 ft 179 kts 321°
2026-03-25 15:02 54.71470 8.58497 4578 ft 179 kts 321°
2026-03-25 15:02 54.72472 8.57273 4450 ft 174 kts 321°
2026-03-25 15:02 54.73463 8.56059 4244 ft 172 kts 321°
2026-03-25 15:02 54.74419 8.54886 4016 ft 171 kts 321°
2026-03-25 15:03 54.75387 8.53699 3780 ft 170 kts 321°
2026-03-25 15:03 54.76355 8.52511 3534 ft 170 kts 321°
2026-03-25 15:03 54.77313 8.51335 3312 ft 164 kts 321°
2026-03-25 15:03 54.78216 8.50226 3068 ft 156 kts 321°
2026-03-25 15:04 54.79081 8.49163 2862 ft 149 kts 321°
2026-03-25 15:04 54.79913 8.48140 2640 ft 144 kts 320°
2026-03-25 15:04 54.80714 8.47154 2467 ft 139 kts 320°
2026-03-25 15:04 54.81494 8.46192 2260 ft 135 kts 320°
2026-03-25 15:05 54.82254 8.45248 2077 ft 132 kts 319°
2026-03-25 15:05 54.82997 8.44326 1881 ft 130 kts 319°
2026-03-25 15:05 54.83731 8.43431 1688 ft 127 kts 319°
2026-03-25 15:05 54.84420 8.42591 1604 ft 119 kts 319°
2026-03-25 15:06 54.85094 8.41761 1443 ft 118 kts 318°
2026-03-25 15:06 54.85755 8.40939 1250 ft 117 kts 319°
2026-03-25 15:06 54.86422 8.40119 1082 ft 117 kts 319°
2026-03-25 15:06 54.87086 8.39294 853 ft 118 kts 319°
2026-03-25 15:07 54.87755 8.38467 737 ft 117 kts 319°
2026-03-25 15:07 54.88190 8.37925 655 ft 116 kts 317°
2026-03-25 15:07 54.88849 8.37110 465 ft 114 kts 319°
2026-03-25 15:07 54.89516 8.36282 290 ft 120 kts 321°
2026-03-25 15:08 54.90188 8.35464 147 ft 116 kts 318°
2026-03-25 15:08 54.90816 8.34683 62 ft 99 kts 319°
2026-03-25 15:08 54.91252 8.34130 52 ft 51 kts 323°
2026-03-25 15:08 54.91505 8.33819 54 ft 39 kts 324°
2026-03-25 15:09 54.91700 8.33582 57 ft 17 kts 323°
2026-03-25 15:09 54.91758 8.33508 55 ft 15 kts 324°
2026-03-25 15:09 54.91843 8.33402 53 ft 14 kts 325°
2026-03-25 15:09 54.91874 8.33266 54 ft 14 kts 239°
2026-03-25 15:10 54.91780 8.33184 52 ft 17 kts 188°
2026-03-25 15:10 54.91667 8.33178 58 ft 16 kts 180°
2026-03-25 15:10 54.91562 8.33178 58 ft 15 kts 179°
2026-03-25 15:10 54.91469 8.33195 58 ft 12 kts 159°
2026-03-25 15:11 54.91406 8.33234 52 ft 7 kts 180°
2026-03-25 15:11 54.91387 8.33179 57 ft 6 kts 265°
2026-03-25 15:11 54.91387 8.33126 58 ft 2 kts 270°
2026-03-25 15:11 54.91387 8.33125 58 ft 0 kts 270°
2026-03-25 15:56 54.91384 8.33125 29 ft 0 kts 273°